Previsão horária em Abaeté

Hoje, 15 Janeiro, Sexta-feira

Tempo Temperatura Precipitação Vento Pressão Humidade
00:00 +20°C° 0.4 mm 0 m/s 706 mmHg 92%
01:00 +20°C° 0.1 mm 0 m/s 706 mmHg 92%
02:00 +20°C° 0.1 mm 0 m/s 705 mmHg 92%
03:00 +20°C° 0 mm 0 m/s 705 mmHg 92%
04:00 +20°C° 0 mm 0 m/s 705 mmHg 92%
05:00 +22°C° 0 mm 1 m/s 706 mmHg 93%
06:00 +21°C° 0 mm 1 m/s 706 mmHg 93%
07:00 +23°C° 0 mm 1 m/s 706 mmHg 90%
08:00 +24°C° 0 mm 1 m/s 707 mmHg 86%
09:00 +25°C° 0 mm 1 m/s 707 mmHg 83%
10:00 +26°C° 0 mm 2 m/s 707 mmHg 77%
11:00 +28°C° 0 mm 2 m/s 707 mmHg 72%
12:00 +29°C° 0 mm 2 m/s 707 mmHg 66%
13:00 +29°C° 0.3 mm 2 m/s 706 mmHg 66%
14:00 +29°C° 0.3 mm 2 m/s 705 mmHg 66%
15:00 +29°C° 0.3 mm 1 m/s 705 mmHg 66%
16:00 +28°C° 0.4 mm 1 m/s 704 mmHg 72%
17:00 +28°C° 0.4 mm 2 m/s 704 mmHg 77%
18:00 +27°C° 0.4 mm 2 m/s 704 mmHg 82%
19:00 +26°C° 1.7 mm 2 m/s 705 mmHg 84%
20:00 +25°C° 1.7 mm 1 m/s 705 mmHg 87%
21:00 +24°C° 1.7 mm 1 m/s 705 mmHg 89%
22:00 +24°C° 1.7 mm 1 m/s 706 mmHg 90%
23:00 +23°C° 1.7 mm 1 m/s 706 mmHg 91%

Amanhã, 16 Janeiro, Sábado

Tempo Temperatura Precipitação Vento Pressão Humidade
00:00 +23°C° 1.7 mm 1 m/s 706 mmHg 92%
01:00 +23°C° 0.3 mm 1 m/s 705 mmHg 93%
02:00 +20°C° 0.3 mm 0 m/s 705 mmHg 93%
03:00 +20°C° 0.3 mm 0 m/s 705 mmHg 94%
04:00 +22°C° 0 mm 1 m/s 705 mmHg 94%
05:00 +22°C° 0 mm 1 m/s 705 mmHg 95%
06:00 +21°C° 0 mm 1 m/s 705 mmHg 96%
07:00 +23°C° 0 mm 2 m/s 706 mmHg 91%
08:00 +24°C° 0 mm 2 m/s 706 mmHg 86%
09:00 +25°C° 0 mm 2 m/s 707 mmHg 81%
10:00 +26°C° 0.4 mm 2 m/s 707 mmHg 79%
11:00 +27°C° 0.4 mm 2 m/s 706 mmHg 77%
12:00 +28°C° 0.4 mm 3 m/s 706 mmHg 75%
13:00 +28°C° 0.2 mm 3 m/s 705 mmHg 73%
14:00 +29°C° 0.2 mm 2 m/s 705 mmHg 71%
15:00 +29°C° 0.2 mm 2 m/s 704 mmHg 69%
16:00 +28°C° 0.4 mm 2 m/s 704 mmHg 74%
17:00 +27°C° 0.4 mm 2 m/s 704 mmHg 79%
18:00 +27°C° 0.4 mm 1 m/s 704 mmHg 84%
19:00 +26°C° 0.3 mm 1 m/s 704 mmHg 86%
20:00 +25°C° 0.3 mm 1 m/s 705 mmHg 88%
21:00 +24°C° 0.3 mm 1 m/s 705 mmHg 90%
22:00 +23°C° 0.7 mm 2 m/s 705 mmHg 91%
23:00 +23°C° 0.7 mm 2 m/s 705 mmHg 92%

Depois de amanhã, 17 Janeiro, Domingo

Tempo Temperatura Precipitação Vento Pressão Humidade
00:00 +23°C° 0.7 mm 2 m/s 705 mmHg 93%
01:00 +21°C° 0 mm 2 m/s 705 mmHg 93%
02:00 +22°C° 0 mm 1 m/s 705 mmHg 94%
03:00 +22°C° 0 mm 1 m/s 705 mmHg 95%
04:00 +21°C° 0 mm 1 m/s 705 mmHg 95%
05:00 +21°C° 0 mm 1 m/s 705 mmHg 96%
06:00 +21°C° 0 mm 1 m/s 705 mmHg 96%
07:00 +21°C° 0 mm 2 m/s 706 mmHg 91%
08:00 +24°C° 0 mm 2 m/s 706 mmHg 86%
09:00 +25°C° 0 mm 3 m/s 707 mmHg 81%
10:00 +26°C° 0.1 mm 3 m/s 707 mmHg 78%
11:00 +27°C° 0.1 mm 3 m/s 706 mmHg 75%
12:00 +28°C° 0.1 mm 3 m/s 706 mmHg 72%
13:00 +28°C° 0.3 mm 3 m/s 705 mmHg 71%
14:00 +29°C° 0.3 mm 3 m/s 705 mmHg 70%
15:00 +29°C° 0.3 mm 3 m/s 704 mmHg 68%
16:00 +28°C° 0.5 mm 2 m/s 704 mmHg 74%
17:00 +27°C° 0.5 mm 2 m/s 704 mmHg 79%
18:00 +27°C° 0.5 mm 1 m/s 704 mmHg 84%
19:00 +26°C° 0.1 mm 1 m/s 704 mmHg 85%
20:00 +25°C° 0.1 mm 1 m/s 705 mmHg 87%
21:00 +23°C° 0.1 mm 1 m/s 705 mmHg 89%
22:00 +23°C° 0 mm 1 m/s 705 mmHg 89%
23:00 +23°C° 0 mm 1 m/s 705 mmHg 90%

18 Janeiro, Segunda-feira

Tempo Temperatura Precipitação Vento Pressão Humidade
00:00 +22°C° 0 mm 1 m/s 705 mmHg 91%
01:00 +22°C° 0 mm 1 m/s 705 mmHg 91%
02:00 +22°C° 0 mm 1 m/s 705 mmHg 92%
03:00 +21°C° 0 mm 1 m/s 704 mmHg 93%
04:00 +21°C° 0 mm 1 m/s 705 mmHg 93%
05:00 +21°C° 0 mm 1 m/s 705 mmHg 94%
06:00 +21°C° 0 mm 1 m/s 705 mmHg 94%
07:00 +22°C° 0 mm 1 m/s 706 mmHg 88%
08:00 +24°C° 0 mm 2 m/s 706 mmHg 82%
09:00 +25°C° 0 mm 2 m/s 707 mmHg 77%
10:00 +27°C° 0 mm 3 m/s 707 mmHg 72%
11:00 +28°C° 0 mm 3 m/s 706 mmHg 67%
12:00 +29°C° 0 mm 3 m/s 706 mmHg 63%
13:00 +29°C° 0 mm 3 m/s 706 mmHg 62%
14:00 +30°C° 0 mm 3 m/s 705 mmHg 62%
15:00 +30°C° 0 mm 3 m/s 705 mmHg 61%
16:00 +29°C° 0 mm 2 m/s 705 mmHg 66%
17:00 +28°C° 0 mm 2 m/s 704 mmHg 70%
18:00 +28°C° 0 mm 1 m/s 704 mmHg 74%
19:00 +27°C° 0 mm 1 m/s 705 mmHg 77%
20:00 +25°C° 0 mm 1 m/s 705 mmHg 79%
21:00 +22°C° 0 mm 0 m/s 705 mmHg 82%
22:00 +24°C° 0 mm 1 m/s 705 mmHg 83%
23:00 +23°C° 0 mm 1 m/s 705 mmHg 84%

19 Janeiro, Terça-feira

Tempo Temperatura Precipitação Vento Pressão Humidade
00:00 +23°C° 0 mm 1 m/s 705 mmHg 86%
01:00 +22°C° 0 mm 1 m/s 705 mmHg 86%
02:00 +22°C° 0 mm 1 m/s 705 mmHg 86%
03:00 +21°C° 0 mm 1 m/s 705 mmHg 86%
04:00 +21°C° 0 mm 1 m/s 705 mmHg 86%
05:00 +20°C° 0 mm 1 m/s 705 mmHg 85%
06:00 +20°C° 0 mm 1 m/s 705 mmHg 85%
07:00 +22°C° 0 mm 1 m/s 706 mmHg 80%
08:00 +24°C° 0 mm 2 m/s 707 mmHg 74%
09:00 +26°C° 0 mm 2 m/s 707 mmHg 68%
10:00 +27°C° 0 mm 2 m/s 707 mmHg 64%
11:00 +28°C° 0 mm 2 m/s 707 mmHg 60%
12:00 +30°C° 0 mm 2 m/s 707 mmHg 55%
13:00 +30°C° 0 mm 2 m/s 707 mmHg 53%
14:00 +31°C° 0 mm 2 m/s 706 mmHg 51%
15:00 +31°C° 0 mm 1 m/s 705 mmHg 48%
16:00 +30°C° 0 mm 1 m/s 705 mmHg 53%
17:00 +29°C° 0 mm 1 m/s 705 mmHg 58%
18:00 +28°C° 0 mm 1 m/s 705 mmHg 64%
19:00 +27°C° 0 mm 1 m/s 705 mmHg 66%
20:00 +25°C° 0 mm 1 m/s 705 mmHg 68%
21:00 +24°C° 0 mm 1 m/s 706 mmHg 70%
22:00 +23°C° 0 mm 1 m/s 706 mmHg 73%
23:00 +23°C° 0 mm 1 m/s 706 mmHg 77%

20 Janeiro, Quarta-feira

Tempo Temperatura Precipitação Vento Pressão Humidade
00:00 +22°C° 0 mm 1 m/s 706 mmHg 80%
01:00 +22°C° 0 mm 1 m/s 706 mmHg 82%
02:00 +21°C° 0 mm 1 m/s 706 mmHg 84%
03:00 +19°C° 0 mm 0 m/s 706 mmHg 86%
04:00 +19°C° 0 mm 0 m/s 706 mmHg 87%
05:00 +19°C° 0 mm 0 m/s 706 mmHg 88%
06:00 +21°C° 0 mm 1 m/s 706 mmHg 89%
07:00 +22°C° 0 mm 1 m/s 707 mmHg 83%
08:00 +24°C° 0 mm 1 m/s 707 mmHg 78%
09:00 +26°C° 0 mm 2 m/s 707 mmHg 73%
10:00 +27°C° 0.1 mm 2 m/s 707 mmHg 68%
11:00 +28°C° 0.1 mm 2 m/s 707 mmHg 63%
12:00 +30°C° 0.1 mm 2 m/s 707 mmHg 58%
13:00 +30°C° 0 mm 2 m/s 706 mmHg 58%
14:00 +30°C° 0 mm 1 m/s 706 mmHg 57%
15:00 +30°C° 0 mm 1 m/s 705 mmHg 57%
16:00 +29°C° 0.1 mm 1 m/s 705 mmHg 61%
17:00 +29°C° 0.1 mm 1 m/s 704 mmHg 66%
18:00 +28°C° 0.1 mm 1 m/s 704 mmHg 70%
19:00 +27°C° 0.1 mm 1 m/s 705 mmHg 72%
20:00 +26°C° 0.1 mm 1 m/s 705 mmHg 74%
21:00 +25°C° 0.1 mm 1 m/s 706 mmHg 76%
22:00 +24°C° 0.2 mm 1 m/s 706 mmHg 79%
23:00 +23°C° 0.2 mm 1 m/s 706 mmHg 83%
Mostrar mais